This is the latest recevied weather packets stored in our database for station/object KG5WBN. If no packets are shown the sender has not sent any weather packets the latest 10 day(s).
| Time | Temp. | Humidity | Pressure | Rain* | Wind** | Luminosity | Snow |
|---|---|---|---|---|---|---|---|
| 1777759645 | 25° C | 25% | 1014.6 hPa | 0 mm | - | 290 W/m² | - |
| 1777759341 | 24.44° C | 25% | 1014.6 hPa | 0 mm | - | 302 W/m² | - |
| 1777759038 | 24.44° C | 25% | 1014.6 hPa | 0 mm | - | 307 W/m² | - |
| 1777758735 | 25° C | 24% | 1014.9 hPa | 0 mm | - | 313 W/m² | - |
| 1777758432 | 23.89° C | 25% | 1014.6 hPa | 0 mm | - | 316 W/m² | - |
| 1777758130 | 25° C | 24% | 1014.6 hPa | 0 mm | - | 320 W/m² | - |
| 1777757827 | 25° C | 24% | 1014.6 hPa | 0 mm | - | 324 W/m² | - |
| 1777757524 | 25° C | 25% | 1014.6 hPa | 0 mm | - | 327 W/m² | - |
| 1777757223 | 24.44° C | 25% | 1014.6 hPa | 0 mm | - | 329 W/m² | - |
| 1777756920 | 23.89° C | 25% | 1014.6 hPa | 0 mm | - | 330 W/m² | - |
| 1777756616 | 23.89° C | 25% | 1014.6 hPa | 0 mm | - | 337 W/m² | - |
| 1777756313 | 24.44° C | 24% | 1014.6 hPa | 0 mm | - | 340 W/m² | - |
| 1777756010 | 24.44° C | 24% | 1014.6 hPa | 0 mm | - | 342 W/m² | - |
| 1777755707 | 24.44° C | 25% | 1014.6 hPa | 0 mm | - | 344 W/m² | - |
| 1777755404 | 24.44° C | 25% | 1014.6 hPa | 0 mm | - | 345 W/m² | - |
| 1777755101 | 23.89° C | 25% | 1014.6 hPa | 0 mm | - | 347 W/m² | - |
| 1777754798 | 24.44° C | 26% | 1014.6 hPa | 0 mm | - | 350 W/m² | - |
| 1777754495 | 24.44° C | 26% | 1014.6 hPa | 0 mm | - | 352 W/m² | - |
| 1777754187 | 24.44° C | 26% | 1014.6 hPa | 0 mm | - | 355 W/m² | - |
| 1777753885 | 25° C | 25% | 1014.9 hPa | 0 mm | - | 359 W/m² | - |
| 1777753579 | 24.44° C | 27% | 1014.9 hPa | 0 mm | - | 358 W/m² | - |
| 1777753277 | 25° C | 27% | 1014.9 hPa | 0 mm | - | 360 W/m² | - |
| 1777752974 | 25° C | 28% | 1014.2 hPa | 0 mm | - | 360 W/m² | - |
| 1777752670 | 24.44° C | 28% | - | 0 mm | - | - | - |
| 1777752366 | 23.89° C | 29% | - | 0 mm | - | - | - |
* Rain latest hour (hover to see other rain measurements)
** Current wind speed in m/s (hover to see current wind gust speed)